• In Italy
  • List of Countries
  • For 7 days
  • Water Temperature
  • Satellite Maps
  • Weather Map
  • Weather Widgets
  • user-avatar
    Login

    Hourly Weather Petrovo

    Today, 19 August, Sunday

    Time Temperature Precipitation Wind Pressure Humidity
    00:00 +21°C° 0 mm 3 mps 751 mmHg 56%
    01:00 +20°C° 0 mm 3 mps 752 mmHg 57%
    02:00 +20°C° 0 mm 3 mps 751 mmHg 59%
    03:00 +19°C° 0 mm 3 mps 751 mmHg 60%
    04:00 +19°C° 0 mm 3 mps 751 mmHg 60%
    05:00 +18°C° 0 mm 3 mps 752 mmHg 60%
    06:00 +20°C° 0 mm 3 mps 752 mmHg 55%
    07:00 +22°C° 0 mm 3 mps 752 mmHg 50%
    08:00 +25°C° 0 mm 3 mps 752 mmHg 44%
    09:00 +27°C° 0 mm 3 mps 752 mmHg 40%
    10:00 +28°C° 0 mm 3 mps 752 mmHg 36%
    11:00 +29°C° 0 mm 3 mps 752 mmHg 33%
    12:00 +30°C° 0 mm 3 mps 752 mmHg 30%
    13:00 +31°C° 0 mm 3 mps 751 mmHg 28%
    14:00 +31°C° 0 mm 3 mps 751 mmHg 26%
    15:00 +31°C° 0 mm 3 mps 751 mmHg 26%
    16:00 +31°C° 0 mm 3 mps 751 mmHg 26%
    17:00 +31°C° 0 mm 2 mps 751 mmHg 27%
    18:00 +29°C° 0 mm 2 mps 751 mmHg 30%
    19:00 +27°C° 0 mm 2 mps 751 mmHg 33%
    20:00 +25°C° 0 mm 2 mps 751 mmHg 36%
    21:00 +24°C° 0 mm 3 mps 751 mmHg 36%
    22:00 +22°C° 0 mm 3 mps 751 mmHg 37%
    23:00 +22°C° 0 mm 3 mps 751 mmHg 38%

    Tomorrow, 20 August, Monday

    Time Temperature Precipitation Wind Pressure Humidity
    00:00 +21°C° 0 mm 3 mps 751 mmHg 38%
    01:00 +20°C° 0 mm 3 mps 751 mmHg 39%
    02:00 +20°C° 0 mm 2 mps 751 mmHg 39%
    03:00 +19°C° 0 mm 2 mps 751 mmHg 40%
    04:00 +19°C° 0 mm 2 mps 751 mmHg 41%
    05:00 +18°C° 0 mm 2 mps 751 mmHg 43%
    06:00 +20°C° 0 mm 2 mps 751 mmHg 40%
    07:00 +23°C° 0 mm 2 mps 752 mmHg 37%
    08:00 +25°C° 0 mm 2 mps 752 mmHg 34%
    09:00 +27°C° 0 mm 2 mps 752 mmHg 31%
    10:00 +28°C° 0 mm 3 mps 752 mmHg 28%
    11:00 +29°C° 0 mm 3 mps 752 mmHg 25%
    12:00 +30°C° 0 mm 2 mps 751 mmHg 24%
    13:00 +30°C° 0 mm 2 mps 751 mmHg 23%
    14:00 +31°C° 0 mm 2 mps 750 mmHg 22%
    15:00 +31°C° 0 mm 2 mps 750 mmHg 22%
    16:00 +30°C° 0 mm 2 mps 750 mmHg 23%
    17:00 +30°C° 0 mm 2 mps 750 mmHg 23%
    18:00 +28°C° 0 mm 2 mps 750 mmHg 25%
    19:00 +26°C° 0 mm 2 mps 750 mmHg 28%
    20:00 +24°C° 0 mm 2 mps 750 mmHg 30%
    21:00 +24°C° 0 mm 2 mps 750 mmHg 31%
    22:00 +23°C° 0 mm 2 mps 750 mmHg 31%
    23:00 +23°C° 0 mm 2 mps 750 mmHg 32%

    Day after tomorrow, 21 August, Tuesday

    Time Temperature Precipitation Wind Pressure Humidity
    00:00 +22°C° 0 mm 1 mps 750 mmHg 32%
    01:00 +22°C° 0 mm 1 mps 750 mmHg 33%
    02:00 +21°C° 0 mm 1 mps 750 mmHg 34%
    03:00 +21°C° 0 mm 1 mps 749 mmHg 34%
    04:00 +20°C° 0 mm 1 mps 749 mmHg 35%
    05:00 +20°C° 0 mm 1 mps 749 mmHg 35%
    06:00 +22°C° 0 mm 1 mps 749 mmHg 33%
    07:00 +24°C° 0 mm 1 mps 750 mmHg 30%
    08:00 +26°C° 0 mm 1 mps 750 mmHg 28%
    09:00 +28°C° 0 mm 1 mps 750 mmHg 26%
    10:00 +29°C° 0 mm 2 mps 750 mmHg 24%
    11:00 +31°C° 0 mm 2 mps 749 mmHg 22%
    12:00 +32°C° 0 mm 2 mps 749 mmHg 22%
    13:00 +32°C° 0 mm 2 mps 749 mmHg 23%
    14:00 +34°C° 0 mm 2 mps 748 mmHg 23%
    15:00 +32°C° 0 mm 2 mps 748 mmHg 25%
    16:00 +32°C° 0 mm 2 mps 748 mmHg 27%
    17:00 +32°C° 0 mm 2 mps 748 mmHg 29%
    18:00 +30°C° 0 mm 2 mps 748 mmHg 34%
    19:00 +28°C° 0 mm 2 mps 748 mmHg 40%
    20:00 +27°C° 0 mm 2 mps 748 mmHg 45%
    21:00 +26°C° 0 mm 2 mps 748 mmHg 49%
    22:00 +25°C° 0 mm 2 mps 748 mmHg 53%
    23:00 +24°C° 0 mm 2 mps 749 mmHg 57%

    22 August, Wednesday

    Time Temperature Precipitation Wind Pressure Humidity
    00:00 +24°C° 0 mm 2 mps 749 mmHg 62%
    01:00 +22°C° 0 mm 3 mps 749 mmHg 68%
    02:00 +21°C° 0 mm 3 mps 749 mmHg 73%
    03:00 +21°C° 0 mm 3 mps 749 mmHg 76%
    04:00 +20°C° 0 mm 3 mps 749 mmHg 79%
    05:00 +20°C° 0 mm 4 mps 750 mmHg 81%
    06:00 +21°C° 0 mm 4 mps 750 mmHg 75%
    07:00 +22°C° 0 mm 5 mps 750 mmHg 69%
    08:00 +23°C° 0 mm 5 mps 751 mmHg 63%
    09:00 +25°C° 0 mm 5 mps 751 mmHg 55%
    10:00 +26°C° 0 mm 5 mps 751 mmHg 48%
    11:00 +27°C° 0 mm 6 mps 751 mmHg 41%
    12:00 +28°C° 0 mm 6 mps 751 mmHg 39%
    13:00 +28°C° 0 mm 5 mps 751 mmHg 37%
    14:00 +28°C° 0 mm 5 mps 751 mmHg 34%
    15:00 +28°C° 0 mm 5 mps 751 mmHg 35%
    16:00 +27°C° 0 mm 5 mps 751 mmHg 35%
    17:00 +27°C° 0 mm 5 mps 752 mmHg 36%
    18:00 +25°C° 0 mm 5 mps 752 mmHg 39%
    19:00 +23°C° 0 mm 5 mps 752 mmHg 42%
    20:00 +21°C° 0 mm 4 mps 753 mmHg 45%
    21:00 +20°C° 0 mm 4 mps 753 mmHg 46%
    22:00 +20°C° 0 mm 4 mps 753 mmHg 47%
    23:00 +19°C° 0 mm 4 mps 753 mmHg 48%

    23 August, Thursday

    Time Temperature Precipitation Wind Pressure Humidity
    00:00 +18°C° 0 mm 4 mps 753 mmHg 50%
    01:00 +17°C° 0 mm 4 mps 754 mmHg 52%
    02:00 +17°C° 0 mm 3 mps 754 mmHg 53%
    03:00 +16°C° 0 mm 3 mps 754 mmHg 55%
    04:00 +16°C° 0 mm 3 mps 754 mmHg 56%
    05:00 +14°C° 0 mm 3 mps 754 mmHg 57%
    06:00 +17°C° 0 mm 4 mps 754 mmHg 52%
    07:00 +19°C° 0 mm 4 mps 754 mmHg 48%
    08:00 +20°C° 0 mm 5 mps 754 mmHg 43%
    09:00 +22°C° 0 mm 5 mps 754 mmHg 38%
    10:00 +23°C° 0 mm 5 mps 754 mmHg 34%
    11:00 +26°C° 0 mm 5 mps 754 mmHg 29%
    12:00 +26°C° 0 mm 5 mps 753 mmHg 27%
    13:00 +27°C° 0 mm 4 mps 753 mmHg 26%
    14:00 +28°C° 0 mm 4 mps 753 mmHg 24%
    15:00 +28°C° 0 mm 4 mps 752 mmHg 25%
    16:00 +27°C° 0 mm 4 mps 752 mmHg 25%
    17:00 +27°C° 0 mm 4 mps 752 mmHg 26%
    18:00 +25°C° 0 mm 4 mps 752 mmHg 30%
    19:00 +22°C° 0 mm 4 mps 752 mmHg 33%
    20:00 +20°C° 0 mm 3 mps 752 mmHg 36%
    21:00 +20°C° 0 mm 3 mps 752 mmHg 38%
    22:00 +19°C° 0 mm 3 mps 752 mmHg 39%
    23:00 +18°C° 0 mm 4 mps 752 mmHg 41%

    24 August, Friday

    Time Temperature Precipitation Wind Pressure Humidity
    00:00 +18°C° 0 mm 4 mps 752 mmHg 43%
    01:00 +17°C° 0 mm 4 mps 752 mmHg 44%
    02:00 +17°C° 0 mm 3 mps 752 mmHg 46%
    03:00 +15°C° 0 mm 4 mps 752 mmHg 46%
    04:00 +15°C° 0 mm 4 mps 752 mmHg 46%
    05:00 +14°C° 0 mm 4 mps 752 mmHg 46%
    06:00 +17°C° 0 mm 4 mps 752 mmHg 43%
    07:00 +19°C° 0 mm 4 mps 752 mmHg 40%
    08:00 +21°C° 0 mm 4 mps 752 mmHg 38%
    09:00 +23°C° 0 mm 5 mps 752 mmHg 34%
    10:00 +26°C° 0 mm 5 mps 751 mmHg 30%
    11:00 +28°C° 0 mm 5 mps 751 mmHg 26%
    12:00 +29°C° 0 mm 5 mps 751 mmHg 25%
    13:00 +30°C° 0 mm 4 mps 750 mmHg 25%
    14:00 +30°C° 0 mm 4 mps 750 mmHg 24%
    15:00 +30°C° 0 mm 4 mps 749 mmHg 25%
    16:00 +30°C° 0 mm 4 mps 749 mmHg 27%
    17:00 +30°C° 0 mm 3 mps 749 mmHg 28%
    18:00 +28°C° 0 mm 4 mps 749 mmHg 31%
    19:00 +26°C° 0 mm 4 mps 749 mmHg 35%
    20:00 +23°C° 0 mm 4 mps 749 mmHg 38%
    21:00 +23°C° 0 mm 4 mps 749 mmHg 38%
    22:00 +22°C° 0 mm 4 mps 749 mmHg 38%
    23:00 +21°C° 0 mm 4 mps 748 mmHg 38%
    Show more